QPF
0.00 0.00 0.00 0.00 0.00 0.00 0.00 0.00 0.00 0.00 0.00 0.00 0.00 0.00 0.00 0.00 0.00 0.01 0.01 0.00 0.00 0.01 0.01 0.00 0.01 0.01 0.00 0.00 0.00 0.01 0.01 0.03 0.05 0.04 0.03 0.02 0.02 0.02 0.02 0.02 0.01 0.02 0.02
0.01 0.00 0.00 0.00 0.00 0.00 0.00 0.00 0.00 0.00 0.00 0.00 0.00 0.00 0.01 0.00 0.00 0.00 0.01 0.01 0.00 0.01 0.02 0.01 0.00 0.00 0.00 0.00 0.00 0.00 0.00 0.01 0.02 0.03 0.03 0.01 0.01 0.01 0.01 0.01 0.01 0.01 0.01
0.00 0.00 0.00 0.00 0.00 0.00 0.00 0.00 0.00 0.00 0.00 0.00 0.00 0.00 0.00 0.00 0.00 0.00 0.01 0.01 0.02 0.03 0.01 0.00 0.00 0.00 0.00 0.00 0.00 0.00 0.00 0.00 0.00 0.01 0.01 0.01 0.00 0.00 0.00 0.01 0.01 0.01 0.01
0.01 0.00 0.00 0.00 0.00 0.00 0.00 0.00 0.00 0.00 0.00 0.00 0.00 0.00 0.00 0.00 0.01 0.01 0.01 0.02 0.03 0.02 0.00 0.00 0.00 0.00 0.00 0.00 0.00 0.00 0.00 0.00 0.00 0.00 0.00 0.00 0.00 0.00 0.00 0.00 0.00 0.01 0.01
0.01 0.01 0.00 0.00 0.00 0.00 0.00 0.00 0.00 0.00 0.00 0.00 0.00 0.00 0.00 0.01 0.02 0.02 0.01 0.02 0.02 0.01 0.00 0.00 0.00 0.00 0.00 0.00 0.00 0.00 0.00 0.00 0.00 0.00 0.00 0.00 0.00 0.00 0.00 0.00 0.00 0.00 0.00
0.01 0.01 0.00 0.00 0.00 0.00 0.00 0.00 0.00 0.00 0.00 0.00 0.00 0.00 0.00 0.01 0.02 0.03 0.03 0.02 0.02 0.00 0.00 0.00 0.00 0.00 0.00 0.00 0.00 0.00 0.00 0.00 0.00 0.00 0.00 0.00 0.00 0.00 0.00 0.00 0.00 0.01 0.01
0.02 0.01 0.01 0.01 0.00 0.00 0.00 0.00 0.00 0.00 0.00 0.00 0.00 0.00 0.00 0.00 0.01 0.02 0.03 0.03 0.01 0.00 0.00 0.00 0.00 0.00 0.00 0.00 0.00 0.00 0.00 0.00 0.00 0.00 0.00 0.00 0.00 0.00 0.00 0.00 0.00 0.01 0.01
0.04 0.02 0.01 0.01 0.01 0.00 0.00 0.00 0.00 0.00 0.00 0.00 0.00 0.00 0.00 0.00 0.00 0.00 0.01 0.00 0.00 0.00 0.00 0.00 0.00 0.00 0.00 0.00 0.00 0.00 0.00 0.00 0.00 0.00 0.00 0.00 0.00 0.00 0.00 0.00 0.00 0.01 0.01
0.02 0.02 0.02 0.02 0.02 0.01 0.01 0.00 0.00 0.00 0.01 0.01 0.01 0.01 0.00 0.00 0.00 0.00 0.00 0.00 0.00 0.00 0.00 0.00 0.00 0.00 0.00 0.00 0.00 0.00 0.00 0.00 0.00 0.00 0.00 0.00 0.00 0.00 0.00 0.00 0.00 0.01 0.01
0.02 0.01 0.02 0.02 0.02 0.02 0.03 0.03 0.01 0.01 0.02 0.02 0.02 0.02 0.01 0.00 0.00 0.00 0.00 0.00 0.00 0.00 0.00 0.00 0.00 0.00 0.00 0.00 0.00 0.00 0.00 0.00 0.00 0.00 0.00 0.00 0.00 0.00 0.00 0.00 0.00 0.01 0.01
0.01 0.02 0.02 0.02 0.03 0.03 0.03 0.05 0.04 0.03 0.03 0.03 0.02 0.01 0.01 0.01 0.01 0.00 0.00 0.00 0.00 0.00 0.00 0.00 0.00 0.00 0.00 0.00 0.00 0.00 0.00 0.00 0.00 0.00 0.00 0.00 0.00 0.00 0.00 0.00 0.00 0.01 0.02
0.02 0.02 0.02 0.02 0.02 0.02 0.02 0.02 0.03 0.03 0.03 0.02 0.01 0.00 0.00 0.00 0.00 0.00 0.00 0.01 0.01 0.00 0.00 0.00 0.00 0.00 0.00 0.00 0.00 0.00 0.00 0.00 0.00 0.00 0.00 0.00 0.00 0.00 0.00 0.00 0.00 0.01 0.02
0.01 0.01 0.02 0.03 0.02 0.02 0.02 0.02 0.02 0.01 0.01 0.01 0.01 0.00 0.00 0.00 0.00 0.00 0.00 0.00 0.01 0.01 0.01 0.01 0.01 0.01 0.00 0.00 0.01 0.01 0.00 0.00 0.00 0.00 0.00 0.00 0.00 0.00 0.00 0.00 0.00 0.00 0.00
0.01 0.01 0.02 0.03 0.03 0.04 0.04 0.03 0.02 0.01 0.01 0.01 0.01 0.01 0.01 0.01 0.01 0.01 0.01 0.01 0.00 0.01 0.01 0.01 0.01 0.01 0.00 0.00 0.01 0.01 0.01 0.01 0.01 0.00 0.00 0.00 0.00 0.00 0.00 0.00 0.00 0.00 0.00
0.01 0.02 0.02 0.02 0.03 0.04 0.05 0.03 0.03 0.02 0.02 0.01 0.01 0.02 0.02 0.01 0.01 0.01 0.01 0.01 0.01 0.01 0.01 0.00 0.00 0.00 0.00 0.00 0.00 0.00 0.00 0.00 0.00 0.00 0.00 0.00 0.00 0.00 0.00 0.00 0.00 0.00 0.00
0.01 0.01 0.01 0.01 0.02 0.03 0.03 0.03 0.03 0.02 0.02 0.02 0.02 0.01 0.01 0.02 0.02 0.02 0.02 0.02 0.02 0.02 0.01 0.01 0.01 0.00 0.00 0.00 0.00 0.00 0.00 0.00 0.00 0.00 0.00 0.00 0.00 0.00 0.00 0.00 0.00 0.00 0.00
0.02 0.01 0.01 0.01 0.01 0.02 0.02 0.03 0.03 0.03 0.03 0.03 0.03 0.03 0.03 0.02 0.02 0.02 0.02 0.02 0.02 0.01 0.01 0.01 0.01 0.01 0.00 0.00 0.00 0.00 0.00 0.00 0.01 0.00 0.00 0.00 0.00 0.00 0.00 0.00 0.00 0.00 0.00
0.02 0.02 0.02 0.02 0.02 0.02 0.02 0.03 0.03 0.03 0.03 0.03 0.03 0.03 0.02 0.02 0.02 0.01 0.01 0.01 0.01 0.01 0.01 0.01 0.01 0.02 0.01 0.01 0.01 0.01 0.01 0.01 0.01 0.00 0.00 0.00 0.00 0.00 0.00 0.00 0.00 0.00 0.00
0.03 0.03 0.03 0.02 0.02 0.02 0.02 0.02 0.02 0.02 0.01 0.01 0.01 0.01 0.01 0.01 0.02 0.02 0.02 0.01 0.01 0.01 0.01 0.01 0.01 0.01 0.01 0.01 0.01 0.01 0.00 0.00 0.00 0.00 0.00 0.00 0.00 0.00 0.00 0.00 0.00 0.00 0.00
0.03 0.04 0.03 0.03 0.02 0.02 0.02 0.02 0.02 0.01 0.01 0.01 0.01 0.01 0.01 0.01 0.01 0.01 0.01 0.00 0.00 0.00 0.01 0.01 0.01 0.01 0.01 0.01 0.01 0.01 0.01 0.00 0.00 0.00 0.00 0.00 0.00 0.00 0.00 0.00 0.00 0.00 0.00
0.02 0.03 0.03 0.02 0.02 0.02 0.02 0.02 0.01 0.01 0.01 0.01 0.01 0.01 0.01 0.00 0.00 0.00 0.00 0.00 0.01 0.01 0.01 0.01 0.01 0.01 0.01 0.01 0.01 0.00 0.00 0.00 0.00 0.00 0.00 0.00 0.00 0.00 0.00 0.00 0.00 0.00 0.00
0.02 0.02 0.02 0.02 0.02 0.01 0.01 0.01 0.01 0.01 0.01 0.01 0.01 0.01 0.01 0.00 0.00 0.00 0.00 0.00 0.00 0.00 0.00 0.00 0.00 0.00 0.00 0.00 0.00 0.00 0.00 0.00 0.00 0.00 0.00 0.00 0.00 0.00 0.00 0.00 0.00 0.00 0.00
0.01 0.01 0.01 0.01 0.01 0.01 0.01 0.00 0.00 0.01 0.01 0.01 0.01 0.00 0.00 0.00 0.00 0.00 0.00 0.00 0.00 0.00 0.00 0.00 0.00 0.00 0.00 0.00 0.00 0.00 0.00 0.00 0.00 0.00 0.00 0.00 0.00 0.00 0.00 0.00 0.00 0.00 0.00
0.01 0.01 0.01 0.01 0.01 0.01 0.01 0.01 0.00 0.00 0.01 0.01 0.01 0.00 0.00 0.00 0.00 0.00 0.00 0.00 0.00 0.00 0.00 0.00 0.00 0.00 0.00 0.00 0.00 0.00 0.00 0.00 0.00 0.00 0.00 0.00 0.00 0.00 0.00 0.00 0.00 0.00 0.00
0.01 0.01 0.01 0.01 0.01 0.01 0.01 0.01 0.01 0.01 0.01 0.01 0.01 0.01 0.00 0.00 0.00 0.00 0.00 0.00 0.00 0.00 0.00 0.00 0.00 0.00 0.00 0.00 0.00 0.00 0.00 0.00 0.00 0.00 0.00 0.00 0.00 0.00 0.00 0.00 0.00 0.00 0.00
0.01 0.01 0.01 0.02 0.02 0.02 0.01 0.01 0.01 0.01 0.01 0.01 0.01 0.01 0.01 0.00 0.00 0.00 0.00 0.00 0.00 0.00 0.00 0.00 0.00 0.00 0.00 0.00 0.00 0.00 0.00 0.00 0.00 0.00 0.00 0.00 0.00 0.00 0.00 0.00 0.00 0.00 0.00
MSLP
1019.15 1019.41 1019.71 1019.99 1020.22 1020.37 1020.42 1020.39 1020.30 1020.21 1020.15 1020.15 1020.23 1020.37 1020.56 1020.77 1020.96 1021.10 1021.18 1021.20 1021.17 1021.12 1021.08 1021.09 1021.18 1021.36 1021.64 1022.02 1022.46 1022.94 1023.42 1023.87 1024.25 1024.54 1024.74 1024.84 1024.85 1024.80 1024.70 1024.59 1024.48 1024.39 1024.33
1019.27 1019.54 1019.84 1020.13 1020.37 1020.53 1020.60 1020.58 1020.52 1020.44 1020.38 1020.38 1020.47 1020.63 1020.85 1021.10 1021.35 1021.57 1021.73 1021.82 1021.84 1021.82 1021.79 1021.78 1021.82 1021.95 1022.16 1022.48 1022.88 1023.34 1023.82 1024.29 1024.72 1025.08 1025.34 1025.51 1025.59 1025.60 1025.55 1025.47 1025.38 1025.29 1025.24
1019.38 1019.66 1019.97 1020.27 1020.52 1020.70 1020.79 1020.80 1020.75 1020.69 1020.65 1020.67 1020.77 1020.95 1021.20 1021.49 1021.79 1022.07 1022.30 1022.46 1022.55 1022.58 1022.58 1022.58 1022.61 1022.70 1022.87 1023.14 1023.49 1023.90 1024.36 1024.83 1025.27 1025.66 1025.97 1026.20 1026.34 1026.40 1026.39 1026.34 1026.27 1026.20 1026.14
1019.44 1019.75 1020.08 1020.39 1020.67 1020.87 1020.98 1021.03 1021.02 1021.00 1020.99 1021.03 1021.14 1021.34 1021.60 1021.92 1022.25 1022.57 1022.85 1023.08 1023.23 1023.32 1023.36 1023.39 1023.44 1023.52 1023.66 1023.89 1024.19 1024.56 1024.97 1025.41 1025.84 1026.23 1026.57 1026.82 1027.00 1027.10 1027.14 1027.14 1027.10 1027.05 1027.00
1019.43 1019.78 1020.15 1020.49 1020.79 1021.03 1021.19 1021.28 1021.33 1021.35 1021.39 1021.46 1021.59 1021.79 1022.05 1022.37 1022.70 1023.04 1023.35 1023.61 1023.81 1023.95 1024.05 1024.12 1024.20 1024.29 1024.43 1024.63 1024.89 1025.21 1025.58 1025.97 1026.36 1026.73 1027.06 1027.33 1027.53 1027.67 1027.76 1027.79 1027.80 1027.78 1027.75
1019.33 1019.75 1020.16 1020.55 1020.89 1021.17 1021.39 1021.54 1021.65 1021.74 1021.82 1021.93 1022.08 1022.28 1022.52 1022.81 1023.12 1023.44 1023.74 1024.01 1024.24 1024.43 1024.58 1024.70 1024.82 1024.95 1025.10 1025.29 1025.52 1025.80 1026.12 1026.46 1026.80 1027.13 1027.44 1027.71 1027.93 1028.10 1028.22 1028.30 1028.36 1028.38 1028.39
1019.15 1019.64 1020.11 1020.54 1020.93 1021.27 1021.55 1021.77 1021.96 1022.11 1022.26 1022.40 1022.57 1022.76 1022.98 1023.23 1023.49 1023.76 1024.03 1024.29 1024.53 1024.74 1024.93 1025.11 1025.28 1025.45 1025.63 1025.83 1026.06 1026.31 1026.58 1026.87 1027.17 1027.46 1027.74 1028.00 1028.22 1028.42 1028.57 1028.70 1028.80 1028.88 1028.92
1018.86 1019.43 1019.96 1020.45 1020.89 1021.28 1021.63 1021.93 1022.20 1022.43 1022.64 1022.83 1023.01 1023.20 1023.39 1023.59 1023.79 1024.01 1024.23 1024.46 1024.69 1024.92 1025.15 1025.38 1025.60 1025.83 1026.05 1026.28 1026.52 1026.76 1027.01 1027.26 1027.52 1027.78 1028.03 1028.27 1028.50 1028.71 1028.89 1029.06 1029.20 1029.31 1029.40
1018.48 1019.11 1019.70 1020.24 1020.73 1021.19 1021.60 1021.98 1022.32 1022.64 1022.91 1023.16 1023.37 1023.56 1023.72 1023.88 1024.03 1024.20 1024.37 1024.57 1024.79 1025.04 1025.30 1025.58 1025.87 1026.15 1026.43 1026.70 1026.96 1027.21 1027.45 1027.69 1027.92 1028.16 1028.39 1028.62 1028.84 1029.05 1029.26 1029.44 1029.60 1029.74 1029.85
1018.00 1018.69 1019.32 1019.90 1020.44 1020.95 1021.43 1021.89 1022.31 1022.70 1023.05 1023.35 1023.60 1023.80 1023.96 1024.10 1024.22 1024.35 1024.50 1024.68 1024.90 1025.16 1025.47 1025.79 1026.14 1026.48 1026.82 1027.14 1027.43 1027.71 1027.96 1028.19 1028.42 1028.64 1028.85 1029.07 1029.29 1029.50 1029.71 1029.90 1030.07 1030.21 1030.32
1017.43 1018.15 1018.81 1019.43 1020.01 1020.58 1021.12 1021.65 1022.15 1022.62 1023.04 1023.40 1023.70 1023.93 1024.11 1024.25 1024.37 1024.49 1024.63 1024.82 1025.06 1025.35 1025.69 1026.07 1026.47 1026.88 1027.26 1027.63 1027.96 1028.26 1028.53 1028.78 1029.00 1029.22 1029.43 1029.64 1029.85 1030.06 1030.25 1030.43 1030.59 1030.71 1030.81
1016.75 1017.49 1018.17 1018.83 1019.45 1020.07 1020.67 1021.27 1021.84 1022.38 1022.88 1023.30 1023.66 1023.94 1024.16 1024.33 1024.47 1024.62 1024.79 1025.01 1025.28 1025.61 1026.00 1026.42 1026.87 1027.32 1027.76 1028.16 1028.53 1028.85 1029.14 1029.40 1029.63 1029.85 1030.06 1030.27 1030.47 1030.66 1030.84 1031.00 1031.13 1031.23 1031.30
1015.99 1016.73 1017.44 1018.12 1018.79 1019.45 1020.12 1020.78 1021.42 1022.03 1022.58 1023.08 1023.49 1023.83 1024.11 1024.33 1024.53 1024.73 1024.95 1025.21 1025.54 1025.92 1026.35 1026.82 1027.30 1027.78 1028.25 1028.68 1029.07 1029.41 1029.71 1029.98 1030.22 1030.45 1030.66 1030.86 1031.06 1031.24 1031.40 1031.53 1031.64 1031.71 1031.75
1015.16 1015.91 1016.63 1017.35 1018.06 1018.78 1019.50 1020.22 1020.92 1021.58 1022.20 1022.75 1023.22 1023.62 1023.96 1024.25 1024.51 1024.78 1025.07 1025.40 1025.78 1026.21 1026.68 1027.18 1027.69 1028.19 1028.67 1029.11 1029.50 1029.85 1030.16 1030.44 1030.69 1030.92 1031.14 1031.35 1031.54 1031.71 1031.86 1031.98 1032.06 1032.12 1032.14
1014.31 1015.07 1015.82 1016.57 1017.33 1018.10 1018.87 1019.64 1020.38 1021.09 1021.74 1022.33 1022.86 1023.31 1023.71 1024.06 1024.40 1024.74 1025.10 1025.50 1025.94 1026.41 1026.92 1027.44 1027.97 1028.47 1028.94 1029.38 1029.77 1030.12 1030.43 1030.71 1030.97 1031.21 1031.44 1031.65 1031.84 1032.02 1032.17 1032.28 1032.37 1032.42 1032.44
1013.50 1014.27 1015.05 1015.84 1016.65 1017.46 1018.27 1019.07 1019.84 1020.57 1021.25 1021.87 1022.42 1022.91 1023.36 1023.77 1024.18 1024.59 1025.02 1025.48 1025.96 1026.48 1027.01 1027.55 1028.07 1028.57 1029.03 1029.45 1029.83 1030.17 1030.48 1030.77 1031.04 1031.29 1031.53 1031.76 1031.98 1032.16 1032.32 1032.45 1032.55 1032.62 1032.66
1012.79 1013.57 1014.38 1015.21 1016.05 1016.89 1017.73 1018.54 1019.32 1020.06 1020.74 1021.36 1021.92 1022.44 1022.92 1023.39 1023.84 1024.31 1024.79 1025.30 1025.83 1026.38 1026.93 1027.47 1027.99 1028.47 1028.92 1029.33 1029.70 1030.04 1030.35 1030.65 1030.93 1031.21 1031.48 1031.73 1031.96 1032.18 1032.36 1032.52 1032.64 1032.74 1032.80
1012.21 1013.01 1013.84 1014.70 1015.56 1016.41 1017.25 1018.06 1018.83 1019.55 1020.22 1020.83 1021.39 1021.92 1022.42 1022.91 1023.40 1023.91 1024.44 1024.99 1025.55 1026.12 1026.68 1027.22 1027.73 1028.21 1028.64 1029.04 1029.41 1029.76 1030.08 1030.40 1030.71 1031.02 1031.32 1031.60 1031.87 1032.12 1032.33 1032.52 1032.68 1032.80 1032.90
1011.78 1012.59 1013.43 1014.29 1015.15 1016.01 1016.84 1017.63 1018.37 1019.06 1019.69 1020.28 1020.83 1021.35 1021.86 1022.37 1022.89 1023.43 1023.99 1024.56 1025.14 1025.72 1026.29 1026.83 1027.33 1027.81 1028.24 1028.65 1029.03 1029.39 1029.74 1030.09 1030.44 1030.78 1031.12 1031.44 1031.75 1032.03 1032.28 1032.49 1032.68 1032.84 1032.97
1011.48 1012.28 1013.11 1013.96 1014.81 1015.64 1016.45 1017.20 1017.91 1018.56 1019.17 1019.73 1020.26 1020.77 1021.28 1021.80 1022.33 1022.88 1023.46 1024.04 1024.64 1025.22 1025.79 1026.33 1026.84 1027.31 1027.76 1028.18 1028.58 1028.97 1029.36 1029.75 1030.14 1030.53 1030.91 1031.28 1031.62 1031.93 1032.21 1032.46 1032.67 1032.85 1032.99
1011.25 1012.03 1012.84 1013.66 1014.49 1015.29 1016.05 1016.77 1017.44 1018.06 1018.64 1019.17 1019.68 1020.19 1020.69 1021.21 1021.75 1022.31 1022.88 1023.47 1024.06 1024.65 1025.21 1025.75 1026.27 1026.75 1027.21 1027.66 1028.09 1028.52 1028.96 1029.39 1029.83 1030.27 1030.69 1031.10 1031.48 1031.82 1032.13 1032.39 1032.62 1032.81 1032.97
1011.02 1011.77 1012.54 1013.33 1014.12 1014.89 1015.62 1016.31 1016.95 1017.54 1018.09 1018.61 1019.11 1019.60 1020.10 1020.61 1021.15 1021.70 1022.28 1022.86 1023.44 1024.02 1024.58 1025.12 1025.64 1026.14 1026.62 1027.09 1027.57 1028.04 1028.52 1029.01 1029.50 1029.98 1030.44 1030.88 1031.29 1031.66 1031.99 1032.27 1032.51 1032.71 1032.86
1010.72 1011.43 1012.17 1012.92 1013.68 1014.42 1015.13 1015.79 1016.41 1016.99 1017.53 1018.04 1018.53 1019.01 1019.50 1020.01 1020.53 1021.08 1021.63 1022.20 1022.77 1023.33 1023.89 1024.43 1024.95 1025.47 1025.98 1026.49 1027.00 1027.52 1028.05 1028.58 1029.11 1029.63 1030.13 1030.61 1031.04 1031.43 1031.77 1032.07 1032.31 1032.51 1032.66
1010.30 1010.96 1011.67 1012.40 1013.14 1013.87 1014.56 1015.22 1015.84 1016.41 1016.94 1017.44 1017.93 1018.41 1018.89 1019.39 1019.89 1020.42 1020.96 1021.50 1022.05 1022.61 1023.15 1023.70 1024.23 1024.77 1025.31 1025.85 1026.40 1026.97 1027.54 1028.11 1028.68 1029.23 1029.76 1030.26 1030.71 1031.11 1031.47 1031.77 1032.02 1032.22 1032.37
1009.74 1010.38 1011.07 1011.79 1012.52 1013.24 1013.94 1014.60 1015.22 1015.79 1016.32 1016.83 1017.31 1017.78 1018.25 1018.73 1019.22 1019.72 1020.24 1020.77 1021.30 1021.85 1022.40 1022.95 1023.50 1024.07 1024.64 1025.22 1025.81 1026.42 1027.03 1027.63 1028.23 1028.81 1029.35 1029.86 1030.32 1030.73 1031.09 1031.39 1031.64 1031.85 1032.00
1009.09 1009.72 1010.40 1011.11 1011.85 1012.57 1013.28 1013.94 1014.57 1015.15 1015.68 1016.18 1016.66 1017.12 1017.57 1018.03 1018.50 1018.99 1019.49 1020.01 1020.54 1021.09 1021.65 1022.23 1022.81 1023.41 1024.02 1024.65 1025.28 1025.92 1026.57 1027.20 1027.82 1028.41 1028.96 1029.47 1029.93 1030.34 1030.69 1030.99 1031.24 1031.44 1031.59
Thickness
5705 5704 5703 5703 5702 5702 5701 5701 5701 5700 5700 5699 5698 5696 5695 5694 5694 5693 5691 5690 5689 5688 5687 5685 5684 5683 5681 5679 5678 5677 5674 5672 5667 5664 5664 5665 5666 5666 5667 5667 5667 5667 5667
5705 5703 5702 5702 5701 5700 5700 5700 5700 5700 5699 5698 5697 5695 5694 5693 5692 5691 5690 5688 5687 5686 5684 5683 5682 5681 5679 5677 5676 5674 5672 5671 5668 5664 5662 5662 5662 5662 5662 5663 5662 5662 5662
5704 5702 5701 5700 5699 5699 5699 5699 5699 5698 5697 5696 5695 5694 5692 5691 5690 5689 5688 5687 5686 5684 5683 5682 5680 5679 5676 5675 5673 5672 5670 5669 5667 5664 5660 5659 5659 5659 5658 5658 5658 5657 5657
5703 5701 5700 5699 5698 5698 5698 5698 5697 5697 5696 5694 5693 5692 5691 5690 5689 5688 5686 5685 5684 5683 5681 5680 5679 5677 5675 5673 5671 5669 5667 5665 5662 5660 5658 5656 5655 5655 5654 5653 5652 5652 5652
5702 5700 5699 5699 5698 5697 5697 5696 5696 5695 5694 5693 5691 5690 5689 5688 5688 5686 5685 5683 5681 5680 5679 5678 5677 5676 5675 5673 5671 5667 5665 5661 5659 5656 5654 5652 5651 5650 5649 5648 5647 5646 5647
5702 5700 5699 5697 5696 5695 5695 5694 5693 5692 5691 5690 5689 5688 5687 5687 5687 5686 5684 5681 5679 5677 5676 5675 5674 5673 5672 5671 5669 5667 5665 5661 5657 5653 5651 5649 5648 5647 5645 5645 5642 5642 5641
5701 5700 5698 5696 5694 5694 5693 5691 5690 5689 5688 5687 5686 5685 5684 5684 5685 5683 5681 5679 5677 5675 5673 5672 5671 5670 5669 5667 5665 5664 5662 5660 5658 5654 5650 5648 5647 5646 5643 5641 5638 5636 5634
5701 5699 5697 5696 5694 5692 5691 5689 5688 5687 5685 5684 5683 5683 5682 5682 5682 5681 5679 5676 5674 5672 5671 5670 5668 5666 5665 5664 5661 5658 5656 5655 5654 5652 5650 5648 5647 5644 5641 5639 5635 5632 5630
5701 5699 5698 5696 5693 5691 5689 5688 5686 5684 5683 5682 5681 5680 5679 5679 5679 5678 5676 5673 5670 5668 5667 5666 5665 5663 5663 5661 5658 5654 5651 5650 5650 5648 5646 5644 5643 5640 5637 5634 5630 5627 5624
5702 5701 5699 5696 5694 5691 5689 5687 5684 5683 5681 5679 5678 5677 5677 5676 5677 5675 5673 5670 5666 5664 5663 5662 5662 5660 5659 5657 5654 5651 5647 5646 5644 5643 5641 5639 5637 5635 5632 5629 5626 5621 5618
5703 5700 5697 5695 5693 5691 5688 5685 5682 5680 5678 5676 5675 5674 5674 5674 5673 5672 5670 5667 5665 5662 5660 5659 5658 5657 5655 5653 5651 5648 5646 5643 5640 5637 5634 5632 5630 5628 5626 5623 5620 5617 5613
5701 5698 5696 5694 5692 5689 5685 5683 5680 5678 5675 5672 5670 5669 5669 5670 5670 5669 5668 5666 5664 5661 5658 5657 5655 5654 5652 5650 5647 5644 5642 5638 5634 5630 5627 5625 5622 5620 5619 5617 5614 5611 5608
5698 5696 5694 5692 5689 5688 5684 5680 5677 5675 5673 5670 5668 5666 5666 5666 5666 5666 5665 5663 5661 5658 5656 5654 5652 5649 5647 5644 5642 5639 5636 5631 5627 5623 5621 5618 5616 5614 5612 5609 5607 5604 5600
5696 5693 5691 5689 5686 5684 5682 5680 5676 5674 5671 5669 5666 5665 5663 5662 5662 5661 5660 5658 5656 5654 5651 5648 5646 5643 5640 5638 5635 5632 5629 5625 5622 5618 5615 5612 5609 5607 5604 5601 5598 5595 5591
5693 5690 5688 5686 5683 5680 5678 5677 5676 5676 5675 5672 5669 5666 5662 5660 5661 5660 5657 5655 5652 5649 5645 5641 5638 5635 5631 5628 5626 5623 5621 5617 5614 5611 5608 5604 5601 5599 5595 5592 5588 5585 5581
5688 5686 5684 5682 5679 5677 5674 5671 5671 5671 5671 5670 5669 5665 5663 5662 5660 5657 5654 5652 5648 5645 5640 5635 5632 5628 5625 5622 5619 5616 5613 5610 5607 5604 5601 5597 5593 5590 5587 5583 5579 5574 5571
5685 5683 5680 5678 5676 5673 5671 5668 5664 5662 5663 5662 5661 5659 5658 5656 5654 5651 5648 5645 5641 5638 5632 5629 5625 5622 5619 5616 5613 5609 5606 5603 5600 5596 5593 5589 5585 5581 5577 5573 5569 5564 5561
5680 5678 5676 5674 5672 5670 5668 5665 5662 5659 5655 5653 5652 5652 5650 5649 5647 5644 5641 5636 5630 5627 5625 5622 5619 5616 5612 5609 5606 5603 5599 5595 5591 5588 5584 5580 5576 5571 5568 5563 5559 5555 5551
5674 5671 5670 5668 5667 5665 5662 5659 5657 5654 5651 5647 5644 5643 5642 5641 5638 5635 5632 5628 5624 5620 5618 5616 5613 5609 5606 5603 5599 5595 5591 5587 5583 5579 5575 5571 5566 5562 5558 5554 5549 5545 5540
5667 5667 5665 5662 5659 5657 5655 5652 5649 5647 5644 5641 5638 5636 5634 5632 5628 5625 5622 5620 5618 5615 5612 5609 5606 5603 5599 5596 5592 5588 5583 5579 5575 5571 5566 5562 5557 5553 5548 5544 5539 5534 5529
5660 5659 5657 5654 5652 5650 5648 5645 5643 5640 5637 5635 5633 5631 5629 5626 5624 5620 5616 5613 5611 5608 5605 5602 5599 5596 5592 5588 5584 5580 5575 5571 5566 5562 5557 5553 5548 5543 5539 5534 5529 5524 5518
5653 5651 5649 5646 5644 5642 5640 5638 5636 5633 5631 5628 5625 5623 5621 5619 5616 5613 5609 5606 5604 5601 5598 5595 5592 5588 5584 5580 5576 5571 5567 5562 5558 5553 5548 5543 5538 5533 5528 5523 5518 5512 5507
5645 5643 5641 5639 5637 5635 5632 5629 5627 5625 5622 5620 5617 5614 5611 5609 5607 5604 5602 5599 5596 5593 5590 5587 5583 5580 5576 5572 5568 5563 5558 5554 5549 5545 5539 5534 5528 5523 5517 5512 5507 5501 5496
5637 5636 5633 5631 5628 5626 5623 5621 5619 5617 5614 5612 5609 5606 5603 5601 5599 5596 5593 5590 5587 5584 5581 5578 5575 5571 5567 5563 5558 5554 5549 5545 5540 5535 5530 5524 5519 5513 5507 5501 5496 5490 5484
5629 5627 5625 5622 5620 5617 5615 5613 5610 5608 5605 5603 5600 5597 5594 5592 5589 5587 5584 5581 5578 5575 5572 5568 5565 5561 5558 5553 5549 5544 5540 5535 5530 5525 5519 5514 5508 5502 5496 5491 5485 5479 5472
5620 5618 5616 5613 5611 5608 5606 5604 5601 5599 5596 5593 5591 5588 5585 5582 5579 5577 5574 5571 5568 5565 5562 5558 5555 5551 5547 5543 5539 5534 5529 5525 5520 5514 5508 5503 5497 5491 5485 5479 5473 5467 5461